Showing default

UNICORN-2O, 63980

Orbit data source: Space-Track

UNICORN-2O, 63980 is a payload satellite owned by Alba Orbital (DE) in SSO that was launched on Sat, 15 Mar 2025 UTC via an FALCON 9 launch vehicle from the Air Force Western Test Range (AFWTR). Payload-class satellites include a variety of spacecraft equipped with specific instruments for various scientific and technological missions. These include communications satellites like Starlink; space stations such as the ISS; scientific satellites like the Hubble; Earth observation satellites from companies like Planet Labs, Umbra, and HawkEye 360; GPS; miniature CubeSats for education and research; and military/defense satellites.

Loading next visibility...
Identifier
63980, 2025-052BS
Orbit
SSO
Country
Flag of DEDE / GER
Related business
Manufacturer
Alba Orbital
Mission
Operational Commercial Imaging
Bus & Motor
POCKETQUBE 3P, Unknown motor
Mass
~0.75 kg wet, ~0.75 kg dry
Launch date (UTC)
2025-03-15 (7 months ago)
Launch vehicle
FALCON 9
Launch site
Air Force Western Test Range (AFWTR)
Object type
Payload
Rocket body
Debris
Shape & HBR
Box + 2 Pan, 0.1 m
Radar Cross Section
0.016 m², Small (<0.1 m²)

Expand to show TLE details & history
Last TLE update: 9 hours ago

TLE from 9 hours ago
0 UNICORN-2O
1 63980U 25052BS  25299.64759686  .00078168  00000-0  25290-2 0  9998
2 63980  97.4105 191.6995 0005928 100.3029 259.8881 15.31735932 34392
Epoch: 2025-10-26T15:32Z
TLE epoch observation values (Epoch: 2025-10-26T15:32:32.368Z)
Latitude
-0.00004°
Longitude
-76.69615°
Altitude
474.454 km
Speed
7.628 km/s
True Right ascension
12h 46m 47s
True Declination
0° 00' 00"
Sunlit
Object was in daylight at epoch
Visualization orbit readout
Latitude
Unknown
Longitude
Unknown
Altitude
Unknown
Speed
Unknown
Apparent Right ascension
Unknown
Apparent Declination
Unknown
Sunlit
N/A
Visualization observer readout
Local Sidereal Time
20:01:12
Azimuth
Unknown
Elevation
Unknown
Doppler factor
Unknown
Orbital elements
Apogee altitude
471.641 km
Perigee altitude
463.525 km
Semi-major axis
6,845.72 km
Eccentricity
0.00059
Inclination
97.4105°
RAAN
191.6995°
Arg. of periapsis
100.3029°
True anomaly
259.82123°
Mean anomaly
259.8881°
Eccentric anomaly
259.85467°
Mean motion
3.8319 °/min
Orbital period
93.95 mins
BSTAR
0.002529
Loading maneuver chart data...
Computing Atmospheric mass density...
Loading historical data...
Loading historical data...
Loading historical data...
Loading historical data...
Loading historical data...
Loading historical data...
Loading historical data...

Documentation

Showing up to 5 results
|